User: anonymous   Login
Location: Charbonni�res
(45.9952°N, 2.9982°E)
Time: 04:40:52
(UTC+00:00)
Language:

ASTRO F (AKARI) - Orbit

View from above orbital plane
View from above orbital plane
View from above satellite
View from above satellite

Ground track
Ground track

The orbit data is extracted from the following two-line orbital elements,

1 28939U 06005A   21059.49841062  .00003291  00000-0  84640-4 0  9994
2 28939  98.2494  69.6765 0090174 146.7361 213.9594 15.36062987820175
Epoch (UTC): 28 February 2021 11:57:42
Eccentricity: 0.0090174
inclination: 98.2494°
perigee height: 396 km
apogee height: 519 km
right ascension of ascending node: 69.6765°
argument of perigee: 146.7361°
revolutions per day: 15.36062987
mean anomaly at epoch: 213.9594°
orbit number at epoch: 82017

The dashed part of the orbit path shows where the satellite is in the earth's shadow,  

DLR